World > North America > United States > Texas > Troy  

Troy, TX Hourly Weather Updates

Feedback E-mail the Weather

Quick Clicks

Troy, TX Weather Maps

°F °C°F °C
Troy Weather Map
UTC Time: 5/21/2024, 03:13
Your Time:

Troy, TX Regional Weather

Expires:202405210400;;575589
ASUS44 KSJT 210310
RWRSJT
WEST CENTRAL TEXAS REGIONAL WEATHER ROUNDUP
NATIONAL WEATHER SERVICE SAN ANGELO TX
1000 PM CDT MON MAY 20 2024

NOTE: "FAIR" INDICATES FEW OR NO CLOUDS BELOW 12,000 FEET WITH NO
SIGNIFICANT WEATHER AND/OR OBSTRUCTIONS TO VISIBILITY.


TXZ145-158-159-173-191-192-194-205-207-220-223-210400-
CENTRAL AND SOUTH CENTRAL TEXAS
  
CITY           SKY/WX    TMP DP  RH WIND       PRES   REMARKS
AUSTIN/BERGSTM CLEAR     83  69  62 SE10      29.78R TC  28           
WACO           PTCLDY    81  70  69 SE13      29.77S TC  27           
HILLSBORO      MOCLDY    80  69  71 SE7       29.79R TC  26           
TEMPLE         PTCLDY    81  71  71 SE17G23   29.79R TC  27           
KILLEEN-GRAY   PTCLDY    82  74  74 SE13      29.78R TC  28           
FORT HOOD      PTCLDY    82  71  69 SE13      29.79R TC  28           
GEORGETOWN     CLEAR     81  71  71 SE9       29.81R TC  27           
LAGO VISTA     CLEAR     81  69  66 SE7       29.85R TC  27           
SAN MARCOS     CLEAR     81  73  76 SE10      29.81R TC  27           
NEW BRAUNFELS  CLEAR     83  72  69 SE15      29.78R TC  28           
RANDOLPH AFB   CLEAR     84  71  64 SE15      29.76R TC  29           
SAN ANTONIO    PTCLDY    84  71  65 SE21G30   29.80R TC  29           
STINSON        CLEAR     84  71  65 SE16G26   29.77R TC  29           
PLEASANTON     NOT AVBL                                               
LA GRANGE      PTCLDY    81  77  88 SE8       29.79S TC  27           
GIDDINGS       MOCLDY    81  73  76 MISG      29.84R TC  27           
$$


SKY/WX - Weather  TMP - Temperature  DP - Dew Point  RH - Humidity
WIND - Wind Direction/Speed PRES - Barometric Pressure VSB - Visibility
WCI - Wind Chill Index E13G22 Wind - East Wind 13 mph/Gusts of 22 mph

Trending Headlines

Trending Entertainment Headlines

Troy Radar Loop

Use the map search tool if you want to place a location marker on the radar map...

Troy Quick Facts

National Two Day Weather Forecast


E-mail the Troy Weather Forecast

Voice your opinion or tell us about page issues...